Stations météo

réclame
Mon MeteoGroup
Vlieland, Pays-Bas (6242): Température de l'air & dewpoint: 15.06.2018 19:00:00 - 21.06.2018 19:00:00 (CEST)Vlieland, Pays-Bas (6242): Température de l'air 5cm: 15.06.2018 19:00:00 - 21.06.2018 19:00:00 (CEST)Vlieland, Pays-Bas (6242): Vitesse du vent & gusts: 15.06.2018 19:00:00 - 21.06.2018 19:00:00 (CEST)Vlieland, Pays-Bas (6242): Direction du vent: 15.06.2018 19:00:00 - 21.06.2018 19:00:00 (CEST)Vlieland, Pays-Bas (6242): reduced air pressure: 15.06.2018 19:00:00 - 21.06.2018 19:00:00 (CEST)Vlieland, Pays-Bas (6242): visibility: 15.06.2018 19:00:00 - 21.06.2018 19:00:00 (CEST)
Date & Time tt [°C] td [°C] tt 5cm [°C] ff [km/h] ff [knt] fx [km/h] fx [knt] dd ppp [hPa] vv [km]
21.06.2018 19:00:00 13,7 7,2 15,0 50 27 61 33 NW 1022,9 10
21.06.2018 18:00:00 14,4 8,9 14,9 44 24 61 33 NW 1022,3 10
21.06.2018 17:00:00 14,3 8,4 16,2 46 25 61 33 NW 1021,9 10
21.06.2018 16:00:00 14,7 8,7 16,0 48 26 61 33 NW 1021,1 10
21.06.2018 15:00:00 14,7 8,7 15,3 48 26 61 33 NW 1020,1 10
21.06.2018 14:00:00 14,2 8,8 14,3 41 22 61 33 NW 1019,5 10
21.06.2018 13:00:00 14,5 8,4 15,5 50 27 68 37 NW 1018,8 10
21.06.2018 12:00:00 14,2 7,8 14,6 54 29 68 37 WNW 1018,0 10
21.06.2018 11:00:00 13,8 6,7 14,4 55 30 65 35 WNW 1017,1 10
21.06.2018 10:00:00 13,1 7,6 13,7 55 30 68 37 WNW 1016,3 10
21.06.2018 09:00:00 13,7 8,5 14,0 50 27 65 35 WNW 1015,7 10
21.06.2018 08:00:00 13,5 9,1 13,4 50 27 58 31 WNW 1015,2 10
21.06.2018 07:00:00 13,3 9,9 13,2 41 22 50 27 WNW 1015,1 10
21.06.2018 06:00:00 13,6 11,0 13,3 35 19 43 23 NW 1015,0 10
21.06.2018 05:00:00 13,5 11,1 13,3 31 17 40 21 NW 1015,2 10
21.06.2018 04:00:00 13,8 12,2 13,5 24 13 29 16 NW 1015,2 10
21.06.2018 03:00:00 14,0 12,7 13,6 21 11 29 16 NW 1015,4 10
21.06.2018 02:00:00 14,1 13,5 14,0 24 13 29 16 NNW 1015,7 10
21.06.2018 01:00:00 14,6 14,0 14,5 18 10 40 21 NW 1015,8 10
21.06.2018 00:00:00 15,3 14,6 15,3 26 14 32 18 WNW 1015,9 10
20.06.2018 23:00:00 15,7 15,1 15,6 24 13 32 18 W 1016,3 10
20.06.2018 22:00:00 15,8 15,2 15,7 26 14 36 19 WSW 1016,1 6
20.06.2018 21:00:00 16,1 15,0 16,0 34 18 43 23 WSW 1016,4 10
20.06.2018 20:00:00 16,2 14,7 16,5 39 21 43 23 SW 1016,4 10
20.06.2018 19:00:00 17,0 14,8 17,8 37 20 47 25 SW 1016,8 10
20.06.2018 18:00:00 17,5 14,7 19,3 39 21 50 27 SW 1017,3 10
20.06.2018 17:00:00 16,5 14,2 17,5 44 24 54 29 SW 1018,0 10
20.06.2018 16:00:00 15,8 14,4 16,4 48 26 61 33 SW 1018,3 6
20.06.2018 15:00:00 16,4 14,3 17,8 54 29 65 35 SW 1018,1 10
20.06.2018 14:00:00 17,0 14,9 18,7 48 26 61 33 SW 1018,2 10
20.06.2018 13:00:00 17,8 15,3 19,7 39 21 47 25 SSW 1018,5 10
20.06.2018 12:00:00 18,1 15,5 20,0 44 24 50 27 SW 1018,9 10
20.06.2018 11:00:00 16,5 15,2 18,1 42 23 50 27 SW 1019,4 10
20.06.2018 10:00:00 16,7 15,3 17,8 41 22 50 27 SW 1019,6 10
20.06.2018 09:00:00 16,1 15,3 16,8 41 22 47 25 SW 1019,7 9
20.06.2018 08:00:00 15,7 15,4 16,2 37 20 47 25 SW 1019,7 6
20.06.2018 07:00:00 15,7 15,2 15,9 39 21 47 25 SW 1019,6 7
20.06.2018 06:00:00 16,1 15,2 15,8 29 16 43 23 SW 1019,9 10
20.06.2018 05:00:00 16,2 15,1 15,8 35 19 47 25 SW 1019,9 10
20.06.2018 04:00:00 16,8 15,0 16,4 39 21 47 25 SW 1020,1 10
20.06.2018 03:00:00 16,6 14,7 16,2 37 20 47 25 SW 1020,4 10
20.06.2018 02:00:00 16,7 14,8 16,3 34 18 43 23 SSW 1020,8 10
20.06.2018 01:00:00 17,1 14,8 16,9 28 15 36 19 SSW 1021,6 10
20.06.2018 00:00:00 17,3 14,6 17,3 28 15 32 18 SSW 1021,6 10
19.06.2018 23:00:00 17,3 14,8 17,3 28 15 36 19 SSW 1022,2 10
19.06.2018 22:00:00 17,3 14,7 17,3 24 13 32 18 SSW 1022,4 10
19.06.2018 21:00:00 17,8 13,9 17,7 26 14 29 16 SSW 1022,1 10
19.06.2018 20:00:00 18,3 13,0 19,5 22 12 29 16 SW 1022,4 10
19.06.2018 19:00:00 17,9 12,1 19,2 18 10 25 14 SW 1022,8 10
19.06.2018 18:00:00 18,3 13,4 20,0 18 10 22 12 W 1023,2 36
19.06.2018 17:00:00 18,9 11,9 22,2 18 10 25 14 W 1023,3 10
19.06.2018 16:00:00 17,7 13,5 19,1 18 10 25 14 W 1023,4 10
19.06.2018 15:00:00 18,8 14,1 22,6 16 9 22 12 W 1023,2 10
19.06.2018 14:00:00 18,7 14,4 22,1 16 9 22 12 W 1023,1 10
19.06.2018 13:00:00 18,3 14,5 21,4 18 10 22 12 W 1022,9 10
19.06.2018 12:00:00 18,4 14,7 20,9 15 8 22 12 W 1022,2 10
19.06.2018 11:00:00 17,3 14,6 19,3 18 10 32 18 WNW 1021,9 10
19.06.2018 10:00:00 16,1 14,9 16,5 31 17 36 19 WNW 1021,4 10
19.06.2018 09:00:00 16,1 15,2 16,5 29 16 36 19 WNW 1020,8 10
19.06.2018 08:00:00 16,2 15,6 16,5 28 15 36 19 W 1019,6 10
19.06.2018 07:00:00 16,0 15,4 15,9 28 15 40 21 W 1019,1 3,2
19.06.2018 06:00:00 16,5 15,5 16,4 31 17 43 23 W 1018,6 10
19.06.2018 05:00:00 16,6 14,8 16,4 25 14 36 19 WSW 1017,9 16
19.06.2018 04:00:00 16,7 14,6 16,4 22 12 29 16 WSW 1017,6 11
19.06.2018 03:00:00 16,0 14,3 15,9 25 14 32 18 SW 1017,4 11
19.06.2018 02:00:00 15,9 14,0 15,8 32 18 43 23 SW 1017,3 11
19.06.2018 01:00:00 15,8 13,9 15,5 37 20 50 27 SW 1017,2 10
19.06.2018 00:00:00 15,4 13,6 15,1 41 22 54 29 SW 1017,6 10
18.06.2018 23:00:00 15,9 13,3 15,8 39 21 54 29 SW 1018,0 10
18.06.2018 22:00:00 15,9 13,3 15,7 41 22 54 29 SW 1017,9 10
18.06.2018 21:00:00 16,2 13,6 16,0 37 20 47 25 SW 1017,7 10
18.06.2018 20:00:00 16,5 13,7 17,2 37 20 43 23 SW 1017,8 10
18.06.2018 19:00:00 17,1 13,6 18,5 37 20 47 25 WSW 1017,7 10
18.06.2018 18:00:00 16,8 13,7 17,6 39 21 47 25 WSW 1017,9 10
18.06.2018 17:00:00 17,3 14,2 18,6 31 17 40 21 SW 1017,6 10
18.06.2018 16:00:00 17,2 14,5 18,4 36 19 43 23 WSW 1018,0 20
18.06.2018 15:00:00 17,4 14,7 19,2 37 20 43 23 WSW 1017,6 10
18.06.2018 14:00:00 17,6 14,6 19,4 34 18 43 23 WSW 1017,5 10
18.06.2018 13:00:00 16,7 14,5 18,0 35 19 43 23 WSW 1017,6 10
18.06.2018 12:00:00 16,3 14,6 17,2 35 19 43 23 WSW 1017,2 10
18.06.2018 11:00:00 16,4 15,0 17,2 35 19 43 23 WSW 1016,8 10
18.06.2018 10:00:00 15,9 15,1 16,3 37 20 43 23 SW 1016,5 9
18.06.2018 09:00:00 15,2 14,8 15,3 35 19 43 23 SW 1016,1 7
18.06.2018 08:00:00 14,9 14,4 14,8 35 19 43 23 SW 1016,1 3,2
18.06.2018 07:00:00 14,6 14,1 14,5 34 18 43 23 SW 1015,9 4,3
18.06.2018 06:00:00 14,9 13,5 14,8 34 18 40 21 SW 1016,1 10
18.06.2018 05:00:00 15,1 13,2 15,0 35 19 43 23 SW 1016,0 10
18.06.2018 04:00:00 15,0 13,0 15,0 35 19 43 23 SW 1016,0 10
18.06.2018 03:00:00 14,9 13,0 14,7 29 16 43 23 SSW 1016,3 10
18.06.2018 02:00:00 14,8 12,7 14,6 26 14 32 18 SSW 1016,5 10
18.06.2018 01:00:00 15,0 12,8 14,8 24 13 32 18 SSW 1016,9 10
18.06.2018 00:00:00 14,7 12,7 14,3 24 13 32 18 SSW 1017,1 10
17.06.2018 23:00:00 15,1 12,4 15,0 26 14 36 19 SW 1017,3 10
17.06.2018 22:00:00 15,2 12,2 15,1 29 16 36 19 SW 1017,0 10
17.06.2018 21:00:00 15,3 12,0 15,2 29 16 40 21 SW 1017,0 10
17.06.2018 20:00:00 15,8 11,6 16,7 29 16 40 21 WSW 1017,0 10
17.06.2018 19:00:00 16,6 11,8 18,1 31 17 40 21 SW 1016,7 10
17.06.2018 18:00:00 17,0 11,9 19,5 31 17 40 21 WSW 1016,7 10
17.06.2018 17:00:00 16,8 11,5 19,6 29 16 36 19 WSW 1016,6 10
17.06.2018 16:00:00 16,3 11,4 17,9 26 14 36 19 WSW 1016,6 10
17.06.2018 15:00:00 16,7 11,6 19,8 31 17 36 19 W 1016,3 10
17.06.2018 14:00:00 18,0 12,2 21,5 29 16 40 21 W 1015,8 10
17.06.2018 13:00:00 17,2 11,7 20,7 31 17 40 21 WSW 1015,3 10
17.06.2018 12:00:00 16,0 11,9 18,0 29 16 36 19 WSW 1015,0 10
17.06.2018 11:00:00 16,1 12,2 17,8 28 15 32 18 W 1014,6 10
17.06.2018 10:00:00 17,2 12,7 18,7 28 15 36 19 W 1014,0 10
17.06.2018 09:00:00 16,3 12,2 17,3 24 13 29 16 WSW 1013,5 10
17.06.2018 08:00:00 15,2 11,6 15,5 22 12 29 16 WSW 1013,0 10
17.06.2018 07:00:00 14,7 12,5 14,6 28 15 32 18 WSW 1012,6 10
17.06.2018 06:00:00 14,4 12,8 14,2 31 17 40 21 WSW 1012,1 10
17.06.2018 05:00:00 14,7 12,8 14,6 34 18 50 27 WSW 1011,9 10
17.06.2018 04:00:00 14,9 12,7 14,7 41 22 50 27 SW 1012,0 10
17.06.2018 03:00:00 14,8 12,7 14,4 39 21 50 27 SW 1011,9 10
17.06.2018 02:00:00 14,5 12,9 14,0 34 18 47 25 SW 1012,3 10
17.06.2018 01:00:00 14,4 12,6 13,8 31 17 40 21 SSW 1012,2 10
17.06.2018 00:00:00 13,8 12,4 13,2 21 11 29 16 SSW 1013,0 10
16.06.2018 23:00:00 13,9 12,1 13,4 21 11 32 18 SSW 1013,2 10
16.06.2018 22:00:00 14,5 11,7 14,1 26 14 40 21 SSW 1013,3 10
16.06.2018 21:00:00 15,8 12,2 16,0 35 19 40 21 SW 1013,1 10
16.06.2018 20:00:00 16,4 10,8 16,8 31 17 36 19 SW 1013,1 10
16.06.2018 19:00:00 17,8 10,1 19,3 22 12 29 16 SW 1013,4 10
16.06.2018 18:00:00 17,2 12,0 19,0 24 13 29 16 WSW 1013,7 10
16.06.2018 17:00:00 18,0 13,6 20,3 24 13 36 19 WSW 1013,5 10
16.06.2018 16:00:00 19,1 13,3 22,5 28 15 36 19 SW 1013,4 10
16.06.2018 15:00:00 18,1 13,6 20,2 26 14 36 19 WSW 1013,4 10
16.06.2018 14:00:00 17,4 12,8 19,8 35 19 40 21 SW 1013,8 10
16.06.2018 13:00:00 17,5 12,9 18,1 29 16 36 19 SW 1013,9 10
16.06.2018 12:00:00 16,3 13,4 17,1 22 12 29 16 SW 1014,0 10
16.06.2018 11:00:00 16,0 12,4 17,0 24 13 29 16 WSW 1014,1 10
16.06.2018 10:00:00 16,6 12,5 17,8 18 10 25 14 SW 1013,8 10
16.06.2018 09:00:00 16,2 12,0 17,0 21 11 25 14 WSW 1013,9 10
16.06.2018 08:00:00 16,8 14,6 17,0 11 6 18 10 SW 1013,9 10
16.06.2018 07:00:00 16,3 14,7 15,7 7 4 14 8 SSE 1013,9 15
16.06.2018 06:00:00 15,0 13,7 14,2 11 6 14 8 SE 1014,0 17
16.06.2018 05:00:00 15,0 13,0 14,1 7 4 14 8 ESE 1014,3 21
16.06.2018 04:00:00 15,1 12,5 14,3 14 8 18 10 ESE 1014,8 27
16.06.2018 03:00:00 15,2 11,5 14,0 14 8 22 12 ESE 1015,1 37
16.06.2018 02:00:00 13,6 12,5 12,8 11 6 14 8 E 1015,5 19
16.06.2018 01:00:00 14,4 13,0 13,6 11 6 14 8 ENE 1015,6 17
16.06.2018 00:00:00 12,8 11,5 11,4 11 6 14 8 NE 1015,9 10
15.06.2018 23:00:00 12,6 10,8 11,7 11 6 14 8 NE 1016,1 10
15.06.2018 22:00:00 14,8 11,6 14,3 11 6 14 8 ENE 1016,1 10
15.06.2018 21:00:00 15,7 11,7 15,5 13 7 18 10 NE 1016,5 10
15.06.2018 20:00:00 16,6 12,4 17,0 15 8 18 10 NNE 1016,5 10
15.06.2018 19:00:00 17,3 13,2 18,8 13 7 18 10 N 1016,8 10

tt = Température de l'air
td = dewpoint
tt 5cm = Température de l'air 5cm
ff = Vitesse du vent
fx = gusts
dd = Direction du vent
ppp = reduced air pressure
vv = visibility

stations d'obs. à proximité